SCP
1 1 0 0 0 0 0 0 1 1 0 0 0 0 0 0 0 0 0 1 1 1 1 2 2 2 2 2 1 1 1 1 1 1 1 1 1 1 1 1 1 1 1
0 0 0 0 0 0 0 0 0 0 0 0 0 0 0 0 0 0 0 1 1 1 1 1 2 3 3 2 1 1 1 1 1 1 1 1 1 1 1 1 1 1 1
0 0 1 1 1 0 0 0 0 0 0 0 0 0 0 0 0 0 0 0 1 1 1 2 2 2 3 3 2 2 2 2 1 1 1 1 1 1 1 1 1 1 2
1 1 1 1 1 1 1 1 1 1 1 1 0 0 0 0 0 0 0 0 0 1 1 2 2 3 3 3 3 3 2 2 2 1 1 1 1 1 1 1 1 1 1
1 1 1 1 1 1 1 1 1 1 1 1 1 0 0 0 0 0 0 0 0 1 1 1 2 3 3 3 4 4 3 2 2 1 1 1 1 1 1 1 1 1 1
1 1 1 1 1 1 1 1 1 1 1 1 1 0 0 0 0 0 1 1 1 1 1 1 2 2 3 3 4 4 3 3 2 2 1 1 1 1 1 1 1 1 1
1 1 1 1 1 1 1 1 1 1 1 1 1 0 0 0 0 1 1 1 1 1 1 1 1 2 2 3 3 3 3 3 2 2 2 1 1 1 1 1 1 1 1
1 1 1 1 1 1 1 1 1 1 1 1 1 1 1 0 0 1 1 1 1 1 2 2 2 2 2 2 2 3 3 3 2 2 2 1 1 1 1 1 1 1 1
1 1 1 1 1 1 1 1 1 1 1 1 1 1 1 1 0 0 1 1 1 1 1 2 2 1 1 1 2 2 2 3 3 2 2 2 1 1 1 1 1 1 1
1 1 1 1 1 1 1 1 1 1 1 2 2 2 1 1 1 0 0 1 1 1 1 1 1 1 1 1 1 1 2 2 3 3 3 2 2 1 1 1 1 1 1
1 1 1 1 1 1 1 1 1 1 1 2 2 2 1 1 1 1 1 1 1 1 1 1 1 1 0 1 1 1 1 2 2 3 3 3 2 2 2 2 1 1 1
1 1 1 2 2 2 1 1 1 1 1 1 1 1 1 1 1 1 1 1 1 1 1 0 0 0 0 1 1 1 1 1 1 2 3 3 2 2 2 2 2 2 2
2 1 1 2 2 2 2 2 1 1 2 1 1 1 1 1 1 1 1 1 1 1 1 0 0 0 1 1 1 1 1 0 1 1 2 2 2 2 2 2 2 2 2
2 2 1 2 2 2 2 2 2 2 2 2 2 2 2 2 1 1 1 1 1 1 1 1 0 1 1 1 1 1 0 0 0 1 1 1 1 1 1 1 1 1 1
2 1 1 1 2 2 2 2 2 2 3 3 3 3 3 2 1 1 1 1 1 1 1 1 1 1 1 1 0 0 0 0 0 0 0 1 1 1 1 1 1 1 1
2 1 1 1 2 2 2 2 2 3 3 4 4 4 3 3 2 1 1 1 1 1 1 1 1 1 1 1 0 0 0 0 0 0 0 0 0 0 0 0 0 0 0
2 2 1 2 2 3 3 3 3 3 4 4 3 3 3 3 3 2 2 2 2 2 2 2 1 1 1 0 0 0 0 0 0 0 0 0 0 0 0 0 0 0 0
2 2 2 2 2 3 3 4 4 4 3 3 2 2 3 3 3 3 3 2 2 2 2 2 1 1 1 0 0 0 0 0 0 0 0 0 0 0 0 0 0 0 0
2 2 2 3 3 3 3 4 4 3 3 2 2 2 2 3 3 3 4 3 3 2 3 3 2 1 1 0 0 0 0 0 0 0 0 0 0 0 0 0 0 0 0
2 3 3 3 3 3 4 3 3 3 2 2 2 2 2 2 2 3 3 4 3 3 3 3 2 1 1 0 0 0 0 0 0 0 0 0 0 0 0 0 0 0 0
2 2 2 3 4 4 4 3 3 3 3 2 2 2 2 2 2 2 3 3 3 3 3 2 2 1 1 1 0 0 0 0 0 0 0 0 0 0 0 0 0 0 0
1 2 2 3 3 4 3 3 3 3 3 2 2 2 2 2 2 2 2 2 3 3 2 2 2 2 2 1 1 1 0 0 0 0 0 0 0 0 0 0 0 0 0
2 2 2 2 3 3 3 2 3 3 2 1 1 2 2 3 3 3 3 2 3 3 2 1 1 2 2 1 1 1 1 1 0 0 0 0 0 0 0 0 0 0 0
2 2 2 2 3 3 2 2 2 2 2 1 1 2 2 3 3 4 4 4 3 3 2 1 1 1 1 1 1 1 1 1 1 0 0 0 1 1 0 0 0 0 0
1 2 2 2 2 2 2 1 1 1 1 1 1 1 2 3 3 3 4 4 4 4 3 1 1 1 1 1 1 1 1 1 1 1 1 0 0 1 1 0 0 0 0
1 1 2 1 1 2 2 1 1 1 0 0 1 1 1 2 3 3 3 4 4 4 3 2 1 0 0 0 1 1 1 1 1 1 1 0 0 0 0 0 0 0 0
Wind_Speed
2 2 2 2 2 1 2 2 1 2 2 3 3 3 3 4 3 3 3 7 8 9 9 8 8 8 7 7 7 7 7 8 8 9 9 9 9 8 8 8 8 8 8
2 2 2 2 2 2 2 2 2 2 2 2 3 3 3 4 4 4 3 4 8 8 8 8 8 8 7 7 6 6 7 7 7 8 8 8 8 8 8 8 8 8 8
3 2 2 1 1 1 2 1 1 1 1 1 2 2 2 3 3 4 3 3 4 7 8 8 8 8 8 7 6 6 6 6 6 7 7 8 8 8 8 8 8 8 9
3 3 2 1 1 1 2 2 1 1 1 1 1 1 1 1 3 3 3 3 3 3 5 8 9 8 8 7 7 6 5 5 6 6 6 7 7 7 8 8 8 8 8
3 3 2 2 2 2 1 1 1 1 1 0 1 1 1 1 2 2 2 3 3 3 3 6 9 9 8 8 7 6 5 5 5 5 5 5 6 6 6 6 7 7 8
3 3 2 2 2 2 1 1 1 1 1 1 1 0 1 1 1 2 2 2 2 4 4 4 3 5 8 7 6 5 5 5 4 4 4 4 5 5 5 5 5 5 6
3 3 2 1 2 2 2 2 2 1 1 1 1 1 2 1 1 1 1 0 1 2 2 2 1 1 2 5 5 5 5 5 4 4 4 4 4 4 5 5 4 5 5
3 3 3 2 2 2 2 2 2 1 1 1 2 1 2 3 3 1 0 1 1 0 0 1 1 2 1 1 2 5 5 5 5 4 4 4 4 3 4 4 4 5 5
3 2 3 2 2 2 2 2 2 3 2 1 1 3 2 2 2 3 2 1 1 0 0 0 1 1 2 1 1 3 5 5 5 5 4 4 4 3 3 4 4 4 5
3 3 3 3 3 2 2 3 3 2 3 1 1 1 2 3 2 2 3 2 1 1 1 1 0 0 2 2 2 3 4 4 5 4 4 4 4 3 4 4 4 5 5
2 3 3 3 3 2 3 3 2 2 3 3 2 1 0 0 1 2 2 3 2 2 1 0 0 0 1 2 2 3 5 5 4 4 4 4 4 4 4 4 4 5 5
2 2 3 3 3 3 3 3 3 3 2 2 2 2 2 1 1 2 2 2 2 2 1 0 0 1 1 1 3 5 6 5 4 4 4 4 4 4 4 4 4 4 5
2 3 3 2 2 3 3 3 2 2 3 2 2 2 2 2 2 2 2 1 1 2 1 1 1 1 1 1 1 4 4 4 4 4 4 4 4 4 4 4 3 3 4
3 3 3 3 3 3 3 3 2 3 2 2 3 2 1 2 2 2 2 2 0 1 1 2 1 1 0 1 2 3 2 4 4 4 4 4 4 4 4 4 3 3 2
3 3 3 3 3 3 2 3 2 3 2 2 3 2 2 2 2 2 2 3 3 1 2 2 1 1 0 0 1 1 1 3 3 3 3 3 3 4 4 3 3 3 3
3 3 3 3 3 3 3 3 2 2 2 2 2 2 2 2 1 1 1 2 2 3 2 2 2 2 1 1 1 1 2 2 3 3 3 2 3 4 4 4 3 3 3
2 3 3 3 3 3 3 3 3 3 3 2 2 2 2 2 1 1 1 1 2 2 2 1 1 0 1 1 0 0 0 0 1 3 3 3 3 3 4 3 3 4 4
2 3 3 3 3 3 3 3 3 3 3 3 2 2 2 1 1 1 1 1 2 2 3 2 1 1 0 1 1 0 0 0 1 2 2 3 3 3 4 4 4 4 4
1 1 2 2 2 2 2 3 3 3 3 3 3 3 3 2 2 1 2 1 1 1 2 2 1 1 0 0 1 1 1 1 1 1 1 2 3 3 4 4 4 4 5
1 1 1 2 2 2 2 2 2 2 2 2 2 3 3 3 3 3 2 2 1 1 2 2 1 1 0 0 1 0 1 1 2 1 1 1 2 3 3 4 4 4 4
2 1 1 1 1 1 2 2 2 2 2 2 2 2 2 2 3 3 2 2 2 2 2 1 1 1 1 1 1 1 1 1 2 1 1 1 1 1 2 3 5 5 4
2 2 2 2 1 1 1 2 3 2 2 2 2 2 2 2 2 2 2 3 4 4 4 3 2 3 3 3 2 2 1 0 2 1 0 1 1 1 2 2 3 4 4
2 2 2 2 2 2 2 2 2 2 2 2 3 2 2 2 2 2 1 1 2 4 6 5 4 4 4 4 3 2 2 2 3 2 1 1 1 2 2 2 3 4 4
2 2 2 2 1 2 2 2 1 1 2 2 3 3 2 3 3 2 2 1 2 3 4 4 5 5 4 4 5 5 4 2 1 1 2 1 2 2 2 2 4 4 4
2 2 2 2 2 2 2 2 1 0 1 2 2 2 2 3 3 2 2 2 2 3 3 3 3 3 4 5 4 3 2 1 1 2 1 1 1 1 1 2 2 4 4
2 2 1 2 2 3 2 2 2 1 1 2 2 2 3 3 4 3 3 3 3 3 2 2 1 2 1 2 4 5 4 3 1 2 2 2 1 0 1 2 1 2 2
Wind_Direction
151 152 157 156 171 161 158 161 175 175 176 192 197 195 198 200 203 201 206 203 210 212 213 213 216 218 217 223 223 225 225 225 224 222 220 218 219 221 225 229 227 220 214
151 148 157 164 180 180 175 171 174 172 188 188 197 204 205 201 200 203 207 213 215 215 217 218 220 220 221 222 226 227 224 224 222 220 217 213 218 223 227 230 229 223 217
150 151 155 166 185 171 157 148 156 153 164 178 193 196 201 207 201 206 207 212 221 225 225 226 231 232 229 225 228 230 223 221 218 213 210 211 217 224 228 227 227 224 218
152 146 153 172 169 141 141 147 151 142 170 170 187 209 206 199 208 206 203 209 219 228 228 226 230 233 232 227 227 225 222 215 214 212 210 212 217 224 226 227 224 221 214
158 151 160 169 145 132 148 170 149 154 161 197 219 215 222 209 216 215 211 216 220 226 230 232 231 232 232 229 226 221 220 214 209 205 206 210 215 221 222 222 224 215 211
153 148 156 161 151 141 152 156 159 163 174 193 215 260 251 242 229 222 227 226 222 225 226 230 226 230 229 229 225 218 212 204 200 200 207 214 217 216 216 218 219 209 204
156 147 162 164 160 161 175 173 158 152 196 150 88 352 334 310 274 250 231 229 260 250 233 215 207 210 225 221 217 208 206 205 200 203 209 215 218 216 214 210 206 193 190
170 170 171 177 173 164 162 164 160 154 210 142 138 113 351 340 326 299 260 198 241 284 296 226 204 213 211 195 199 203 207 208 204 203 208 210 208 205 192 191 184 181 185
188 183 178 174 170 168 181 188 174 159 182 234 159 143 152 233 300 317 305 309 308 330 288 225 149 204 181 193 206 210 210 214 208 203 201 191 176 171 168 177 177 180 183
201 195 180 181 178 179 185 197 184 172 161 193 246 215 178 164 158 303 317 315 295 269 274 254 130 192 183 194 197 193 208 212 203 195 179 169 170 168 173 179 182 185 189
219 206 188 186 188 195 199 203 193 184 176 180 189 197 179 122 146 163 277 307 318 296 279 247 91 118 209 188 186 190 197 194 192 191 186 179 180 181 183 187 189 190 192
240 233 215 203 201 198 201 207 202 196 197 188 187 177 168 171 200 174 211 265 287 294 300 276 160 179 200 193 195 181 182 183 186 188 187 191 190 189 192 195 195 195 196
220 233 225 209 212 209 203 199 199 208 203 198 202 206 200 200 180 168 168 217 281 298 326 320 280 202 197 188 200 184 186 186 192 191 196 197 196 193 192 195 199 198 198
213 217 214 208 207 207 206 192 199 213 204 211 221 212 215 223 186 175 175 162 104 330 321 290 310 252 258 220 188 171 182 183 184 186 195 196 196 197 195 196 190 185 184
211 208 209 199 200 199 201 188 201 213 208 215 224 221 223 231 212 203 183 165 157 187 263 268 290 281 240 217 190 176 183 181 183 180 184 187 191 192 198 199 189 186 187
216 201 207 207 203 196 197 197 205 211 203 220 218 220 234 239 232 209 192 184 172 173 208 244 239 258 220 168 162 169 189 179 188 178 175 179 191 198 197 198 196 191 185
202 199 206 209 208 203 197 196 209 204 203 222 232 215 228 216 213 227 201 185 185 164 176 255 270 266 103 105 56 37 118 192 224 186 175 169 181 195 194 196 203 202 197
221 212 202 197 202 204 196 195 209 202 196 207 220 215 231 219 221 231 205 194 190 168 155 179 232 242 220 174 157 127 74 213 246 216 199 191 193 198 199 203 206 209 207
215 208 180 181 202 207 202 206 199 196 192 204 211 213 225 210 225 229 213 212 213 172 137 155 198 218 237 116 67 338 311 303 268 231 211 221 215 211 208 211 211 211 210
177 169 173 180 195 198 201 199 180 177 188 211 227 227 224 209 214 220 217 212 178 134 120 136 166 193 205 208 123 195 325 320 297 273 277 243 230 226 229 224 217 215 214
179 173 167 183 192 189 202 191 194 186 191 226 254 245 230 214 218 217 209 196 170 157 151 157 177 176 226 195 212 218 217 298 294 258 273 259 228 251 248 235 224 224 217
186 180 191 194 201 219 203 198 194 200 206 216 242 245 238 244 242 230 219 195 177 175 179 182 196 204 225 216 207 193 170 129 289 274 176 277 204 244 256 238 230 219 214
182 183 202 192 205 235 234 230 206 200 216 226 227 230 240 249 240 228 228 197 199 192 186 184 197 212 209 207 189 192 198 199 227 230 143 266 259 259 257 243 216 216 225
194 204 211 208 222 262 269 266 242 227 241 241 236 227 220 249 249 214 206 223 241 241 222 202 205 215 208 200 190 191 196 209 262 233 154 223 257 258 258 247 222 218 231
223 222 206 194 217 266 269 238 199 75 268 266 261 248 228 246 257 210 185 215 258 271 255 236 229 223 214 195 179 153 155 150 275 269 193 179 237 280 283 258 243 227 230
222 224 227 217 224 249 261 209 200 183 226 257 273 275 267 257 260 220 201 200 224 255 265 277 295 297 254 208 185 178 180 182 192 256 232 174 208 113 297 281 266 246 235